When you browse on this site, cookies collect data to enhance your experience and personalize the content and advertising you see.
Visit our Privacy Policy to learn more. By continuing to use the site, you agree to this use of cookies and data.
  • In Lithuania
  • List of Countries
  • For 7 days
  • Water Temperature
  • Weather Map
  • Weather Widgets
  • user-avatar
    Login

    Hourly Weather Shaki

    Today, 15 October, Tuesday

    Time Temperature Precipitation Wind Pressure Humidity
    00:00 +16°C° 0 mm 1 mps 742 mmHg 56%
    01:00 +14°C° 0 mm 0 mps 742 mmHg 56%
    02:00 +14°C° 0 mm 0 mps 742 mmHg 57%
    03:00 +14°C° 0 mm 0 mps 741 mmHg 57%
    04:00 +13°C° 0 mm 0 mps 741 mmHg 57%
    05:00 +13°C° 0 mm 0 mps 741 mmHg 58%
    06:00 +13°C° 0 mm 0 mps 741 mmHg 58%
    07:00 +16°C° 0 mm 1 mps 741 mmHg 53%
    08:00 +19°C° 0 mm 1 mps 741 mmHg 48%
    09:00 +21°C° 0 mm 1 mps 741 mmHg 43%
    10:00 +22°C° 0 mm 1 mps 740 mmHg 40%
    11:00 +24°C° 0 mm 2 mps 740 mmHg 37%
    12:00 +25°C° 0 mm 2 mps 739 mmHg 34%
    13:00 +25°C° 0 mm 2 mps 739 mmHg 34%
    14:00 +26°C° 0 mm 2 mps 739 mmHg 33%
    15:00 +26°C° 0 mm 2 mps 738 mmHg 33%
    16:00 +24°C° 0 mm 1 mps 738 mmHg 39%
    17:00 +21°C° 0 mm 1 mps 738 mmHg 46%
    18:00 +17°C° 0 mm 0 mps 738 mmHg 53%
    19:00 +17°C° 0 mm 0 mps 738 mmHg 53%
    20:00 +19°C° 0 mm 1 mps 738 mmHg 53%
    21:00 +18°C° 0 mm 1 mps 738 mmHg 53%
    22:00 +18°C° 0 mm 1 mps 738 mmHg 52%
    23:00 +18°C° 0 mm 1 mps 738 mmHg 52%

    Tomorrow, 16 October, Wednesday

    Time Temperature Precipitation Wind Pressure Humidity
    00:00 +15°C° 0 mm 0 mps 738 mmHg 52%
    01:00 +16°C° 0 mm 1 mps 738 mmHg 52%
    02:00 +16°C° 0 mm 1 mps 738 mmHg 52%
    03:00 +16°C° 0 mm 1 mps 738 mmHg 51%
    04:00 +15°C° 0 mm 1 mps 737 mmHg 52%
    05:00 +15°C° 0 mm 1 mps 737 mmHg 53%
    06:00 +14°C° 0 mm 1 mps 737 mmHg 54%
    07:00 +18°C° 0 mm 1 mps 738 mmHg 47%
    08:00 +20°C° 0 mm 1 mps 738 mmHg 41%
    09:00 +23°C° 0 mm 1 mps 738 mmHg 35%
    10:00 +24°C° 0 mm 1 mps 738 mmHg 32%
    11:00 +26°C° 0 mm 1 mps 738 mmHg 29%
    12:00 +27°C° 0 mm 2 mps 738 mmHg 26%
    13:00 +27°C° 0 mm 1 mps 737 mmHg 26%
    14:00 +28°C° 0 mm 1 mps 737 mmHg 26%
    15:00 +28°C° 0 mm 1 mps 737 mmHg 25%
    16:00 +26°C° 0 mm 1 mps 737 mmHg 31%
    17:00 +23°C° 0 mm 1 mps 737 mmHg 36%
    18:00 +21°C° 0 mm 1 mps 737 mmHg 41%
    19:00 +21°C° 0 mm 1 mps 738 mmHg 41%
    20:00 +20°C° 0 mm 1 mps 738 mmHg 42%
    21:00 +19°C° 0 mm 2 mps 738 mmHg 42%
    22:00 +18°C° 0 mm 2 mps 738 mmHg 45%
    23:00 +18°C° 0 mm 2 mps 738 mmHg 47%

    Day after tomorrow, 17 October, Thursday

    Time Temperature Precipitation Wind Pressure Humidity
    00:00 +18°C° 0 mm 1 mps 739 mmHg 50%
    01:00 +18°C° 0 mm 1 mps 739 mmHg 52%
    02:00 +18°C° 0 mm 1 mps 739 mmHg 54%
    03:00 +16°C° 0 mm 1 mps 739 mmHg 56%
    04:00 +16°C° 0 mm 1 mps 739 mmHg 59%
    05:00 +15°C° 0 mm 1 mps 739 mmHg 61%
    06:00 +14°C° 0 mm 0 mps 739 mmHg 63%
    07:00 +18°C° 0 mm 1 mps 739 mmHg 60%
    08:00 +20°C° 0 mm 1 mps 739 mmHg 56%
    09:00 +22°C° 0 mm 1 mps 739 mmHg 53%
    10:00 +23°C° 0 mm 2 mps 739 mmHg 50%
    11:00 +24°C° 0 mm 2 mps 739 mmHg 47%
    12:00 +25°C° 0 mm 2 mps 739 mmHg 44%
    13:00 +25°C° 0 mm 2 mps 738 mmHg 44%
    14:00 +26°C° 0 mm 2 mps 738 mmHg 43%
    15:00 +26°C° 0 mm 2 mps 738 mmHg 42%
    16:00 +24°C° 0 mm 2 mps 738 mmHg 49%
    17:00 +22°C° 0 mm 1 mps 738 mmHg 55%
    18:00 +20°C° 0 mm 1 mps 738 mmHg 61%
    19:00 +20°C° 0 mm 1 mps 738 mmHg 61%
    20:00 +19°C° 0 mm 1 mps 738 mmHg 61%
    21:00 +19°C° 0 mm 1 mps 738 mmHg 60%
    22:00 +19°C° 0 mm 1 mps 738 mmHg 62%
    23:00 +18°C° 0 mm 1 mps 738 mmHg 63%

    18 October, Friday

    Time Temperature Precipitation Wind Pressure Humidity
    00:00 +18°C° 0 mm 1 mps 737 mmHg 65%
    01:00 +16°C° 0 mm 1 mps 737 mmHg 66%
    02:00 +16°C° 0 mm 1 mps 737 mmHg 67%
    03:00 +16°C° 0 mm 1 mps 737 mmHg 68%
    04:00 +16°C° 0 mm 1 mps 737 mmHg 68%
    05:00 +15°C° 0 mm 1 mps 736 mmHg 69%
    06:00 +15°C° 0 mm 1 mps 736 mmHg 69%
    07:00 +18°C° 0 mm 1 mps 736 mmHg 62%
    08:00 +20°C° 0 mm 1 mps 736 mmHg 55%
    09:00 +22°C° 0 mm 1 mps 736 mmHg 48%
    10:00 +24°C° 0 mm 1 mps 736 mmHg 44%
    11:00 +25°C° 0 mm 2 mps 736 mmHg 40%
    12:00 +27°C° 0 mm 2 mps 736 mmHg 35%
    13:00 +27°C° 0 mm 2 mps 735 mmHg 34%
    14:00 +28°C° 0 mm 2 mps 735 mmHg 33%
    15:00 +28°C° 0 mm 2 mps 735 mmHg 32%
    16:00 +26°C° 0 mm 1 mps 735 mmHg 39%
    17:00 +23°C° 0 mm 1 mps 735 mmHg 45%
    18:00 +21°C° 0 mm 1 mps 735 mmHg 52%
    19:00 +21°C° 0 mm 1 mps 735 mmHg 51%
    20:00 +21°C° 0 mm 1 mps 736 mmHg 51%
    21:00 +19°C° 0 mm 2 mps 736 mmHg 50%
    22:00 +20°C° 0 mm 1 mps 736 mmHg 51%
    23:00 +20°C° 0 mm 1 mps 736 mmHg 52%

    19 October, Saturday

    Time Temperature Precipitation Wind Pressure Humidity
    00:00 +19°C° 0 mm 1 mps 736 mmHg 53%
    01:00 +19°C° 0 mm 1 mps 736 mmHg 54%
    02:00 +18°C° 0 mm 1 mps 736 mmHg 55%
    03:00 +18°C° 0 mm 1 mps 736 mmHg 56%
    04:00 +16°C° 0 mm 0 mps 736 mmHg 56%
    05:00 +16°C° 0 mm 0 mps 736 mmHg 57%
    06:00 +15°C° 0 mm 0 mps 737 mmHg 57%
    07:00 +17°C° 0 mm 0 mps 737 mmHg 53%
    08:00 +21°C° 0 mm 1 mps 737 mmHg 49%
    09:00 +23°C° 0 mm 1 mps 737 mmHg 44%
    10:00 +24°C° 0 mm 1 mps 737 mmHg 43%
    11:00 +25°C° 0 mm 2 mps 737 mmHg 41%
    12:00 +27°C° 0 mm 2 mps 737 mmHg 39%
    13:00 +27°C° 0 mm 2 mps 737 mmHg 39%
    14:00 +27°C° 0 mm 3 mps 737 mmHg 39%
    15:00 +28°C° 0 mm 3 mps 737 mmHg 39%
    16:00 +26°C° 0 mm 3 mps 737 mmHg 45%
    17:00 +24°C° 0 mm 2 mps 737 mmHg 51%
    18:00 +21°C° 0 mm 2 mps 737 mmHg 56%
    19:00 +21°C° 0 mm 2 mps 737 mmHg 59%
    20:00 +20°C° 0 mm 3 mps 738 mmHg 63%
    21:00 +19°C° 0 mm 3 mps 738 mmHg 66%
    22:00 +19°C° 0 mm 3 mps 738 mmHg 69%
    23:00 +18°C° 0 mm 2 mps 738 mmHg 71%

    20 October, Sunday

    Time Temperature Precipitation Wind Pressure Humidity
    00:00 +19°C° 0 mm 1 mps 738 mmHg 74%
    01:00 +18°C° 0 mm 1 mps 738 mmHg 76%
    02:00 +18°C° 0 mm 1 mps 738 mmHg 77%
    03:00 +16°C° 0 mm 0 mps 738 mmHg 78%
    04:00 +16°C° 0 mm 0 mps 738 mmHg 78%
    05:00 +16°C° 0 mm 0 mps 738 mmHg 77%
    06:00 +15°C° 0 mm 0 mps 738 mmHg 77%
    07:00 +19°C° 0 mm 1 mps 738 mmHg 71%
    08:00 +20°C° 0 mm 1 mps 738 mmHg 66%
    09:00 +21°C° 0 mm 1 mps 738 mmHg 60%
    10:00 +22°C° 0 mm 1 mps 738 mmHg 56%
    11:00 +23°C° 0 mm 2 mps 738 mmHg 53%
    12:00 +24°C° 0 mm 2 mps 738 mmHg 49%
    13:00 +24°C° 0.1 mm 2 mps 738 mmHg 49%
    14:00 +24°C° 0.1 mm 2 mps 737 mmHg 49%
    15:00 +24°C° 0.1 mm 2 mps 737 mmHg 48%
    16:00 +23°C° 0 mm 1 mps 737 mmHg 53%
    17:00 +22°C° 0 mm 1 mps 737 mmHg 57%
    18:00 +18°C° 0 mm 0 mps 737 mmHg 61%
    19:00 +20°C° 0 mm 1 mps 737 mmHg 63%
    20:00 +19°C° 0 mm 2 mps 738 mmHg 65%
    21:00 +18°C° 0 mm 2 mps 738 mmHg 67%
    22:00 +18°C° 0 mm 2 mps 738 mmHg 69%
    23:00 +17°C° 0 mm 2 mps 738 mmHg 72%
    Show more